Location: Melbourne
(37.8120°S, 144.9677°E)
Time: 19:28:12
(UTC+10:00)

ISS - Visible Passes

Search period start: 14 May 2021 00:00
Search period end: 24 May 2021 00:00
Orbit: 417 x 422 km, 51.6° (Epoch: 14 May)

Date Brightness Start Highest point End Pass type
(mag) Time Alt. Az. Time Alt. Az. Time Alt. Az.
18 May -0.5 06:45:50 10° N 06:48:05 17° NE 06:50:21 10° E visible
20 May -2.8 06:46:22 10° NW 06:49:42 53° NE 06:53:04 10° ESE visible
21 May -1.6 05:59:20 10° NNW 06:02:21 29° NE 06:05:22 10° ESE visible
22 May -0.8 05:12:50 10° N 05:15:02 17° NE 05:17:18 10° E visible
22 May -3.4 06:48:14 10° WNW 06:51:33 47° SW 06:54:55 10° SE visible
23 May -3.8 06:01:48 20° NW 06:04:03 83° SW 06:07:31 10° SE visible
